CAPE
1237 387 469 639 313 590 456 644 836 1568 1575 1843 1833 1833 1916 1497 1433 1387 1268 1285 1288 676
1311 942 694 753 1023 647 862 903 1518 1442 1472 1622 1732 1747 1734 1409 1263 1300 1264 1178 1288 1082
1001 1231 1017 1149 862 929 1068 1463 1210 1422 1295 1096 1281 2023 1791 1077 1114 1087 1070 870 1329 1336
898 920 1123 1012 1121 1097 1076 1244 1469 1313 1275 1247 1180 1399 1627 1235 952 956 1120 1130 1259 1278
1116 998 768 985 978 1001 1092 1174 1350 1434 1574 1692 1358 1579 1580 941 839 1027 1136 1131 1234 1034
1109 1102 955 694 976 929 1031 1058 927 1289 1527 1192 861 921 1219 1441 944 928 1043 1145 1225 1177
1173 1119 1067 924 985 997 1032 1042 899 1109 1332 1092 973 834 945 1123 990 900 1108 1199 1216 1133
1139 1246 1147 1041 1153 1282 1032 1025 981 1025 1172 829 867 722 851 880 815 992 1105 1042 1159 1102
1192 1321 1338 1341 1392 1490 1432 1355 1139 1031 941 921 743 360 347 315 666 895 887 890 1096 1046
1326 1408 1454 1519 1615 1629 1628 1602 1576 1367 1128 935 990 484 268 205 706 912 694 964 1084 928
1274 1278 1412 1427 1529 1595 1666 1637 1598 1470 1126 1092 942 150 62 90 690 1009 1219 1097 900 785
770 952 1187 1386 1561 1565 1593 1490 1399 1442 1459 1404 290 0 0 134 762 538 250 70 56 68
253 378 451 697 1290 1370 1096 1007 804 779 1028 599 25 0 0 89 107 42 2 3 2 0
53 67 58 158 297 535 432 29 0 0 1 3 4 0 0 0 16 2 1 1 2 0
CIN
-7 -9 -2 -2 -7 -1 -2 -2 -1 -2 -2 -3 -6 -2 0 -1 0 0 0 0 -1 -2
-10 -20 -3 -1 0 -2 -2 -1 -1 -1 0 0 -1 -5 -1 -1 -2 0 -1 0 -1 -3
-16 -14 -8 -5 -10 -1 -1 -3 -2 -2 -2 -1 -1 0 -3 0 -1 -1 -1 -2 0 0
-16 -7 -7 -7 -5 -6 -7 -6 -4 -4 -2 -6 0 -1 -7 -7 -5 -2 -1 0 -1 -1
-25 -15 -2 -4 -4 -12 -9 -6 -4 0 -1 -4 -2 -1 -7 -9 -2 -1 -1 0 0 -1
-34 -32 -24 -13 -4 -6 -15 -14 -3 -1 -2 0 -3 -2 -1 -5 -4 -2 -1 -1 -1 -1
-35 -34 -22 -19 -9 -6 -7 -10 -10 -1 -1 -1 -1 -2 0 -1 0 -1 -1 -1 -1 -1
-33 -20 -19 -14 -20 -14 -15 -14 -18 -8 -12 -10 -1 -1 0 -2 -1 -1 -1 0 0 -1
-30 -28 -27 -21 -13 -13 -14 -14 -16 -19 -14 -4 -4 -17 -60 -48 -12 -1 0 -1 -1 0
-11 -5 -10 -13 -5 -5 -6 -5 -5 -6 -3 -2 -1 -51 -86 -81 -16 -1 -8 0 -1 -1
0 0 0 -1 -5 -5 -1 -1 -1 -2 -5 -1 -14 -140 -162 -136 -24 -1 -1 -2 -3 -2
0 0 0 0 0 -1 -1 -2 -1 -1 0 -1 -71 0 0 -122 -20 -30 -42 -67 -71 -52
-17 -24 -36 -16 0 0 -1 0 -5 -7 -2 -28 -129 0 0 -104 -86 -71 0 0 0 0
-30 -42 -107 -53 -27 -8 -1 -77 0 0 0 0 0 0 0 0 -101 -1 0 0 0 0
Wind_Speed
29 28 26 26 25 24 23 22 14 12 20 21 21 20 19 20 20 19 19 18 18 18
30 30 28 25 24 27 24 22 21 22 23 24 24 23 22 21 21 20 20 20 19 19
31 31 31 26 28 25 23 23 23 24 20 23 24 24 24 22 22 22 21 20 20 20
13 32 33 30 28 27 24 24 23 23 25 23 24 25 25 23 23 23 23 22 22 21
5 11 8 30 28 25 24 24 25 25 25 26 23 23 24 23 24 24 24 23 22 22
23 16 15 26 29 26 25 25 26 25 26 25 23 26 26 25 25 25 25 24 23 23
28 27 25 21 18 14 19 25 25 23 24 25 26 28 28 26 26 26 25 24 24 23
27 29 28 26 23 19 12 13 16 18 22 24 25 26 26 26 27 25 26 26 24 20
26 26 27 25 24 24 22 17 16 17 21 21 22 21 21 23 25 25 26 24 23 22
27 27 27 26 24 24 26 26 24 22 22 22 25 23 23 23 23 24 24 24 22 22
27 27 25 25 25 24 23 25 25 24 23 22 22 20 20 22 23 22 22 21 21 23
25 27 26 24 26 26 25 25 23 22 20 20 20 18 18 19 20 21 21 20 21 22
30 30 28 28 24 22 24 23 23 24 21 19 18 17 16 17 19 18 18 19 20 21
25 28 32 32 34 31 27 23 23 21 20 18 17 16 16 14 15 16 16 17 19 20
Wind_Direction
227 230 235 235 238 238 242 251 287 293 257 252 243 247 263 244 238 252 245 242 237 241
218 225 231 241 247 239 250 258 265 257 253 243 237 240 246 244 240 243 235 240 235 230
203 210 221 247 244 253 262 260 261 253 267 256 245 238 242 250 246 247 245 240 254 262
163 203 215 242 251 253 262 262 265 266 254 262 257 251 247 260 255 249 253 258 266 271
183 167 173 251 254 261 267 267 266 264 262 254 272 271 262 272 265 261 261 268 277 277
265 271 192 200 257 263 267 267 264 266 262 269 280 266 265 273 273 269 268 278 284 294
259 262 265 272 277 281 277 268 269 276 274 275 274 265 267 273 275 277 279 285 288 298
264 262 263 266 270 277 283 285 283 284 282 281 281 277 276 280 279 285 285 289 299 313
267 268 266 267 269 269 273 280 285 286 283 284 286 288 290 289 288 292 293 299 305 307
266 267 267 268 269 271 269 270 276 281 285 283 280 284 285 289 292 295 298 301 306 308
267 269 270 271 270 271 271 271 273 277 282 284 284 285 286 288 291 296 300 305 308 308
270 270 271 272 270 272 272 272 274 277 280 282 284 285 287 290 292 294 300 306 309 310
268 269 272 271 274 273 274 273 275 278 280 282 285 285 287 289 293 296 300 305 311 314
281 274 270 270 269 274 271 270 273 278 281 281 285 288 288 290 292 295 299 305 309 314